Regional Weather Roundup
Issued by NWS Sioux Falls, SD

Home | Current Version | Previous Version | Text Only | Print | Product List | Glossary On
Versions: 1 2 3 4 5 6 7 8 9 10 11 12 13 14 15 16 17 18 19 20 21 22 23 24 25 26 27 28 29 30 31 32 33 34 35 36 37 38 39 40 41 42 43 44 45 46 47 48 49 50
000
ASUS43 KFSD 271510
RWRFSD

WEATHER ROUNDUP FOR SE SOUTH DAKOTA/SW MINNESOTA/NW IOWA
NATIONAL WEATHER SERVICE SIOUX FALLS SD
1000 AM CDT SAT MAY 27 2017

NOTE: "FAIR" INDICATES FEW OR NO CLOUDS BELOW 12,000 FEET WITH NO
SIGNIFICANT WEATHER AND OR OBSTRUCTIONS TO VISIBILITY.


SDZ038>040-050-052>070-271600-
SOUTHEAST SOUTH DAKOTA

CITY           SKY/WX    TMP DP  RH WIND       PRES   REMARKS
CHAMBERLAIN    CLOUDY    61  50  67 NW8       29.97R
HURON          CLOUDY    65  45  48 NW12      29.92S
MADISON        FAIR      57  54  88 W8        29.94S
MITCHELL       CLOUDY    61  53  75 SW8       29.95R
SIOUX FALLS    CLOUDY    59  54  83 W3        29.94R
WINNER         CLOUDY    56  51  84 NW8       30.00R
YANKTON        CLOUDY    58  53  84 NW5       29.96R
$$

MNZ071-072-080-081-089-090-097-098-271600-
SOUTHWEST MINNESOTA

CITY           SKY/WX    TMP DP  RH WIND       PRES   REMARKS
FAIRMONT       CLOUDY    68  48  48 CALM      29.94R
JACKSON        FLURRIES  61  50  67 CALM      29.95S
LUVERNE        CLOUDY    59  52  77 CALM      29.93F
MARSHALL       CLOUDY    65  48  54 W10       29.91F
MONTEVIDEO     CLOUDY    63  52  67 SW3       29.90S
PIPESTONE      CLOUDY    61  46  59 W7        29.93F
REDWOOD FALLS  CLOUDY    64  49  57 SW5       29.91F
TRACY          CLOUDY    64  50  59 SW6       29.92S
WINDOM         PTSUNNY   64  50  59 CALM      29.94R
WORTHINGTON    LGT RAIN  62  50  64 SW8       29.95S
$$

IAZ001>003-012>014-020>022-031-032-NEZ013-014-SDZ071-271600-
NORTHWEST IOWA

CITY           SKY/WX    TMP DP  RH WIND       PRES   REMARKS
CHEROKEE       CLOUDY    61  54  78 N5        29.93F
DENISON        CLOUDY    63  52  67 N7        29.93R
ESTHERVILLE    CLOUDY    66  49  54 CALM      29.93R
LE MARS        CLOUDY    59  54  82 NE6       29.95F
ORANGE CITY    LGT RAIN  57  52  82 N3        29.95F
SHELDON        LGT RAIN  55  52  88 N5        29.94S
SIOUX CITY     CLOUDY    61  51  70 NE7       29.92F
SPENCER        CLOUDY    63  53  70 NW10      29.95R
STORM LAKE     CLOUDY    64  48  55 NE9       29.93S
$$

ABBREVIATIONS USED IN REMARKS
   TC - TEMPERATURE IN CELSIUS
  WCI - WIND CHILL INDEX
   HX - HEAT INDEX
  VSB - VISIBILITY




USA.gov is the U.S. government's official web portal to all federal, state and local government web resources and services.